Showing default

TIME FLIES, 64564

Orbit data source: Space-Track

TIME FLIES, 64564 is a payload satellite owned by TrustPoint (US) in SSO that was launched on Mon, 23 Jun 2025 UTC via an FALCON 9 launch vehicle from the Air Force Western Test Range (AFWTR). Payload-class satellites include a variety of spacecraft equipped with specific instruments for various scientific and technological missions. These include communications satellites like Starlink; space stations such as the ISS; scientific satellites like the Hubble; Earth observation satellites from companies like Planet Labs, Umbra, and HawkEye 360; GPS; miniature CubeSats for education and research; and military/defense satellites.

Loading next visibility...
Identifier
64564, 2025-135AN
Orbit
SSO
Country
Flag of USUS
Related business
Manufacturer
TrustPoint
Mission
Operational Commercial Navigation
Bus & Motor
CUBESAT 3U?, Unknown motor
Mass
4 kg wet, 4 kg dry
Launch date (UTC)
2025-06-23 (11 months ago)
Launch vehicle
FALCON 9
Launch site
Air Force Western Test Range (AFWTR)
Object type
Payload
Rocket body
Debris
Shape & HBR
Box, 0.1 m
Radar Cross Section
0.035 m², Medium (>0.1 m² and < 1m²)

Expand to show TLE details & history
Last TLE update: 9 hours ago

TLE from 9 hours ago
0 TIME FLIES
1 64564U 25135AN  26133.24730275  .00002539  00000-0  23917-3 0  9990
2 64564  97.7662 248.0466 0002716  60.5407 299.6084 14.94708251 48687
Epoch: 2026-05-13T05:56Z
TLE epoch observation values (Epoch: 2026-05-13T05:56:06.957Z)
Latitude
-0.00004°
Longitude
-71.99245°
Altitude
585.39 km
Speed
7.568 km/s
True Right ascension
16h 32m 11s
True Declination
0° 00' 00"
Sunlit
Object was in full shadow at epoch
Visualization orbit readout
Latitude
Unknown
Longitude
Unknown
Altitude
Unknown
Speed
Unknown
Apparent Right ascension
Unknown
Apparent Declination
Unknown
Sunlit
N/A
Visualization observer readout
Local Sidereal Time
22:52:33
Azimuth
Unknown
Elevation
Unknown
Doppler factor
Unknown
Orbital elements
Apogee altitude
582.184 km
Perigee altitude
578.404 km
Semi-major axis
6,958.431 km
Eccentricity
0.00027
Inclination
97.7662°
RAAN
248.0466°
Arg. of periapsis
60.5407°
True anomaly
299.58134°
Mean anomaly
299.6084°
Eccentric anomaly
299.59487°
Mean motion
3.73918 °/min
Orbital period
96.28 mins
BSTAR
0.00023917
Loading maneuver chart data...
Computing Atmospheric mass density...
Loading historical data...
Loading historical data...
Loading historical data...
Loading historical data...
Loading historical data...
Loading historical data...
Loading historical data...

Documentation

Showing up to 5 results
|